TimePDT,TemperatureF,Dew PointF,Humidity,Sea Level PressureIn,VisibilityMPH,Wind Direction,Wind SpeedMPH,Gust SpeedMPH,PrecipitationIn,Events,Conditions,WindDirDegrees,DateUTC
12:56 AM,50.0,46.0,86,30.00,10.0,Calm,Calm,-,N/A,,Clear,0,2013-10-01 07:56:00
1:56 AM,48.0,45.0,89,30.01,10.0,Calm,Calm,-,N/A,,Clear,0,2013-10-01 08:56:00
2:56 AM,46.9,44.1,90,30.01,10.0,Calm,Calm,-,N/A,,Clear,0,2013-10-01 09:56:00
3:56 AM,48.0,45.0,89,30.00,10.0,NNW,3.5,-,N/A,,Clear,340,2013-10-01 10:56:00
4:56 AM,46.0,44.1,93,30.00,10.0,Calm,Calm,-,N/A,,Clear,0,2013-10-01 11:56:00
5:56 AM,46.9,44.1,90,30.01,10.0,North,3.5,-,N/A,,Clear,350,2013-10-01 12:56:00
6:56 AM,46.9,44.1,90,30.02,10.0,NNW,3.5,-,0.01,,Clear,340,2013-10-01 13:56:00
7:56 AM,48.0,45.0,89,30.03,10.0,Variable,3.5,-,N/A,,Clear,0,2013-10-01 14:56:00
8:56 AM,52.0,46.9,83,30.04,10.0,NNW,3.5,-,N/A,,Clear,330,2013-10-01 15:56:00
9:56 AM,59.0,46.0,62,30.05,10.0,NNE,5.8,-,N/A,,Clear,20,2013-10-01 16:56:00
10:56 AM,64.0,43.0,46,30.04,10.0,North,8.1,-,N/A,,Clear,10,2013-10-01 17:56:00
11:56 AM,66.9,43.0,42,30.03,10.0,North,5.8,-,N/A,,Clear,360,2013-10-01 18:56:00
12:56 PM,70.0,42.1,36,30.02,10.0,WNW,9.2,-,N/A,,Clear,300,2013-10-01 19:56:00
1:56 PM,71.1,44.1,38,30.00,10.0,West,11.5,-,N/A,,Clear,280,2013-10-01 20:56:00
2:56 PM,72.0,44.1,37,29.98,10.0,West,12.7,-,N/A,,Clear,280,2013-10-01 21:56:00
3:56 PM,72.0,44.1,37,29.97,10.0,NW,9.2,-,N/A,,Clear,310,2013-10-01 22:56:00
4:56 PM,70.0,45.0,41,29.96,10.0,West,10.4,-,N/A,,Clear,270,2013-10-01 23:56:00
5:56 PM,66.9,44.1,44,29.96,10.0,West,6.9,-,N/A,,Clear,280,2013-10-02 00:56:00
6:56 PM,63.0,46.0,54,29.96,10.0,Variable,4.6,-,N/A,,Clear,0,2013-10-02 01:56:00
7:56 PM,57.9,46.0,65,29.98,10.0,Calm,Calm,-,N/A,,Clear,0,2013-10-02 02:56:00
8:56 PM,55.0,46.9,74,29.99,10.0,Calm,Calm,-,N/A,,Clear,0,2013-10-02 03:56:00
9:56 PM,54.0,46.9,77,29.99,10.0,Calm,Calm,-,N/A,,Clear,0,2013-10-02 04:56:00
10:56 PM,53.1,46.0,77,29.99,10.0,Calm,Calm,-,N/A,,Clear,0,2013-10-02 05:56:00
11:56 PM,52.0,46.0,80,29.99,10.0,Calm,Calm,-,N/A,,Clear,0,2013-10-02 06:56:00